Find Starlink 11565

NORAD ID: 62912 Int'l Des: 2025-027 Owner: SPXS Country: US Constellation: starlink operational
LEOCIRCULAR

实时位置

正在加载3D地球...

关于 Starlink 11565

正在加载描述...

即将过境

Passes for default location (London). Set your location on the main map for personalized predictions.

高度历史

Loading altitude history...

两行轨道根数

1 62912U 25027F 26125.70419933 .00224798 00000-0 16996-2 0 9993
2 62912 42.9991 3.5847 0000237 141.7536 218.3348 15.70962570 72125
Epoch: May 5, 2026 • Age: 8 hours

当前状态

高度 356.0 km
速度 7.70 km/s
星下点 -2.68°S, 127.22°E
发射日期 Feb 8, 2025
运行时间 1.2 years
类型 internet

技术详情

分类 Payload
质量 960.00 kg
干质量 910.00 kg
总质量 960.00 kg
长度 0.30 m
直径 4.10 m
跨度 29.00 m
形状 Box + pan
制造商 SPXS
平台类型 Starlink V2MD
阶段状态 In Orbit
所有者/国家 SPXS/US

Most Searched